EZY25PV EGAC-EGGW

Flight info

Callsign EZY25PV
Flight time 0h 47m
Altitude 33000
Route DUFFY L10 RINGA Q39 ETIGA DCT INKOB Q39 NOMSU UQ4 LISTO
Aircraft A319/M-SDE2E3FGIJ1RWXYZ/LB1

Departure

Time 2026-04-23 19:28
Airport George Best Belfast City Airport (EGAC)

Arrival

Time 2026-04-23 20:15
Airport London Luton Airport (EGGW)
Time Latitude Longitude Altitude Speed Heading
2026-04-23 19:06 54.61502 -5.87147 24 ft 0 kts 156°
2026-04-23 19:21 54.61530 -5.87173 24 ft 4 kts 135°
2026-04-23 19:21 54.61541 -5.87204 21 ft 4 kts 70°
2026-04-23 19:22 54.61535 -5.87219 23 ft 1 kts 35°
2026-04-23 19:22 54.61534 -5.87221 23 ft 0 kts 35°
2026-04-23 19:24 54.61538 -5.87215 22 ft 3 kts 35°
2026-04-23 19:24 54.61575 -5.87172 21 ft 8 kts 34°
2026-04-23 19:24 54.61696 -5.87026 21 ft 12 kts 35°
2026-04-23 19:25 54.61828 -5.87161 18 ft 16 kts 308°
2026-04-23 19:25 54.62015 -5.87008 17 ft 17 kts 34°
2026-04-23 19:26 54.62223 -5.86758 20 ft 17 kts 35°
2026-04-23 19:26 54.62323 -5.86637 21 ft 18 kts 35°
2026-04-23 19:27 54.62465 -5.86463 21 ft 10 kts 172°
2026-04-23 19:27 54.61897 -5.87144 19 ft 118 kts 214°
2026-04-23 19:28 54.60216 -5.89237 925 ft 154 kts 213°
2026-04-23 19:28 54.58406 -5.91617 2008 ft 181 kts 213°
2026-04-23 19:29 54.57342 -5.92979 2426 ft 200 kts 211°
2026-04-23 19:29 54.54478 -5.93542 3325 ft 239 kts 150°
2026-04-23 19:30 54.52309 -5.88929 5089 ft 257 kts 125°
2026-04-23 19:30 54.51315 -5.86338 6024 ft 262 kts 125°
2026-04-23 19:30 54.49267 -5.81015 7861 ft 271 kts 126°
2026-04-23 19:31 54.48211 -5.78299 8760 ft 276 kts 126°
2026-04-23 19:31 54.47130 -5.75538 9662 ft 280 kts 126°
2026-04-23 19:31 54.46030 -5.72737 10531 ft 285 kts 127°
2026-04-23 19:31 54.44871 -5.69802 10896 ft 309 kts 127°
2026-04-23 19:32 54.43635 -5.66685 11457 ft 321 kts 127°
2026-04-23 19:32 54.42362 -5.63485 12239 ft 326 kts 127°
2026-04-23 19:32 54.41074 -5.60242 13075 ft 330 kts 127°
2026-04-23 19:32 54.39780 -5.56972 13892 ft 333 kts 127°
2026-04-23 19:33 54.38462 -5.53670 14638 ft 337 kts 127°
2026-04-23 19:33 54.37120 -5.50346 15320 ft 341 kts 127°
2026-04-23 19:33 54.34376 -5.43596 16662 ft 349 kts 127°
2026-04-23 19:34 54.32981 -5.40166 17341 ft 353 kts 126°
2026-04-23 19:34 54.31567 -5.36692 18027 ft 357 kts 126°
2026-04-23 19:34 54.28688 -5.29650 19230 ft 366 kts 126°
2026-04-23 19:35 54.27204 -5.26089 19820 ft 369 kts 127°
2026-04-23 19:35 54.25623 -5.22600 20422 ft 372 kts 129°
2026-04-23 19:35 54.23975 -5.19169 21031 ft 375 kts 131°
2026-04-23 19:35 54.22287 -5.15746 21644 ft 378 kts 131°
2026-04-23 19:36 54.20582 -5.12302 22230 ft 381 kts 131°
2026-04-23 19:36 54.18870 -5.08829 22837 ft 384 kts 130°
2026-04-23 19:36 54.17157 -5.05321 23430 ft 386 kts 130°
2026-04-23 19:36 54.15435 -5.01771 24013 ft 389 kts 130°
2026-04-23 19:37 54.13701 -4.98187 24472 ft 393 kts 130°
2026-04-23 19:37 54.11960 -4.94586 24970 ft 395 kts 130°
2026-04-23 19:37 54.10205 -4.90958 25401 ft 399 kts 130°
2026-04-23 19:37 54.08427 -4.87299 25820 ft 403 kts 130°
2026-04-23 19:38 54.06631 -4.83620 26258 ft 405 kts 130°
2026-04-23 19:38 54.04820 -4.79912 26683 ft 409 kts 130°
2026-04-23 19:38 54.03023 -4.76148 27094 ft 412 kts 129°
2026-04-23 19:38 54.01265 -4.72268 27498 ft 416 kts 127°
2026-04-23 19:39 53.99527 -4.68315 27836 ft 420 kts 126°
2026-04-23 19:39 53.97781 -4.64305 28235 ft 423 kts 126°
2026-04-23 19:39 53.96023 -4.60280 28640 ft 426 kts 126°
2026-04-23 19:39 53.94239 -4.56227 29054 ft 429 kts 126°
2026-04-23 19:40 53.92440 -4.52178 29443 ft 433 kts 127°
2026-04-23 19:40 53.90605 -4.48090 29831 ft 436 kts 127°
2026-04-23 19:40 53.88753 -4.43993 30179 ft 440 kts 127°
2026-04-23 19:40 53.86880 -4.39852 30519 ft 444 kts 126°
2026-04-23 19:41 53.85053 -4.35637 30845 ft 445 kts 124°
2026-04-23 19:41 53.83272 -4.31319 31156 ft 448 kts 123°
2026-04-23 19:41 53.82087 -4.28371 31383 ft 449 kts 123°
2026-04-23 19:41 53.79772 -4.22552 31791 ft 452 kts 123°
2026-04-23 19:42 53.78002 -4.18129 32083 ft 455 kts 123°
2026-04-23 19:42 53.76218 -4.13726 32524 ft 454 kts 123°
2026-04-23 19:42 53.74423 -4.09351 32968 ft 453 kts 123°
2026-04-23 19:42 53.72711 -4.04894 33316 ft 451 kts 115°
2026-04-23 19:43 53.71690 -3.99936 33393 ft 446 kts 98°
2026-04-23 19:43 53.71005 -3.89787 33398 ft 427 kts 109°
2026-04-23 19:43 53.69635 -3.85373 33409 ft 425 kts 121°
2026-04-23 19:44 53.68025 -3.81204 33399 ft 424 kts 122°
2026-04-23 19:44 53.65293 -3.74266 33400 ft 424 kts 121°
2026-04-23 19:45 53.62220 -3.65795 33407 ft 423 kts 118°
2026-04-23 19:45 53.59310 -3.57180 33407 ft 424 kts 117°
2026-04-23 19:46 53.56411 -3.48536 33407 ft 424 kts 117°
2026-04-23 19:46 53.53466 -3.39940 33410 ft 424 kts 117°
2026-04-23 19:47 53.50497 -3.31381 33405 ft 424 kts 118°
2026-04-23 19:47 53.47519 -3.22834 33404 ft 423 kts 118°
2026-04-23 19:48 53.44544 -3.14304 33403 ft 423 kts 118°
2026-04-23 19:48 53.41570 -3.05779 33414 ft 424 kts 117°
2026-04-23 19:49 53.38587 -2.97272 33403 ft 424 kts 117°
2026-04-23 19:49 53.35594 -2.88780 33398 ft 423 kts 117°
2026-04-23 19:50 53.32597 -2.80300 33411 ft 423 kts 117°
2026-04-23 19:50 53.29621 -2.71815 33413 ft 423 kts 115°
2026-04-23 19:51 53.26964 -2.63062 33419 ft 421 kts 112°
2026-04-23 19:51 53.24472 -2.54199 33436 ft 421 kts 112°
2026-04-23 19:52 53.21944 -2.45400 33445 ft 421 kts 113°
2026-04-23 19:52 53.19355 -2.36654 33444 ft 420 kts 113°
2026-04-23 19:53 53.16738 -2.27941 33433 ft 420 kts 113°
2026-04-23 19:53 53.13572 -2.19752 33433 ft 425 kts 130°
2026-04-23 19:54 53.09022 -2.13431 33421 ft 428 kts 141°
2026-04-23 19:54 53.04208 -2.07574 33433 ft 429 kts 141°
2026-04-23 19:55 52.99391 -2.01709 33200 ft 428 kts 142°
2026-04-23 19:55 52.97014 -1.98824 32941 ft 419 kts 142°
2026-04-23 19:55 52.94672 -1.95989 32678 ft 414 kts 142°
2026-04-23 19:55 52.92349 -1.93187 32419 ft 411 kts 143°
2026-04-23 19:56 52.90044 -1.90411 32154 ft 409 kts 143°
2026-04-23 19:56 52.87751 -1.87657 31847 ft 404 kts 142°
2026-04-23 19:56 52.85480 -1.84933 31379 ft 402 kts 142°
2026-04-23 19:56 52.83220 -1.82223 30925 ft 399 kts 142°
2026-04-23 19:57 52.80983 -1.79537 30478 ft 397 kts 142°
2026-04-23 19:57 52.78755 -1.76865 29991 ft 394 kts 142°
2026-04-23 19:57 52.76544 -1.74215 29572 ft 390 kts 142°
2026-04-23 19:57 52.74319 -1.71693 29126 ft 388 kts 148°
2026-04-23 19:58 52.71940 -1.69607 28624 ft 386 kts 151°
2026-04-23 19:58 52.69573 -1.67575 28197 ft 382 kts 151°
2026-04-23 19:58 52.67215 -1.65546 27778 ft 379 kts 151°
2026-04-23 19:58 52.64884 -1.63536 27353 ft 376 kts 151°
2026-04-23 19:59 52.62575 -1.61546 26932 ft 373 kts 150°
2026-04-23 19:59 52.60290 -1.59583 26513 ft 370 kts 150°
2026-04-23 19:59 52.58003 -1.57630 26104 ft 367 kts 150°
2026-04-23 19:59 52.55763 -1.55720 25698 ft 364 kts 151°
2026-04-23 20:00 52.53524 -1.53810 25289 ft 362 kts 151°
2026-04-23 20:00 52.51299 -1.51910 24892 ft 359 kts 151°
2026-04-23 20:00 52.49097 -1.50031 24578 ft 355 kts 151°
2026-04-23 20:00 52.46919 -1.48175 24276 ft 349 kts 153°
2026-04-23 20:01 52.44791 -1.46360 24026 ft 342 kts 153°
2026-04-23 20:01 52.42689 -1.44570 23581 ft 339 kts 153°
2026-04-23 20:01 52.40606 -1.42800 23116 ft 337 kts 153°
2026-04-23 20:01 52.38522 -1.41042 22602 ft 337 kts 153°
2026-04-23 20:02 52.36385 -1.39258 22000 ft 349 kts 153°
2026-04-23 20:02 52.34195 -1.37448 21410 ft 362 kts 153°
2026-04-23 20:02 52.31872 -1.35544 20781 ft 379 kts 153°
2026-04-23 20:02 52.29517 -1.33634 20142 ft 386 kts 153°
2026-04-23 20:03 52.27103 -1.31696 19518 ft 387 kts 153°
2026-04-23 20:03 52.24677 -1.29770 18833 ft 389 kts 153°
2026-04-23 20:03 52.22197 -1.27828 18066 ft 389 kts 153°
2026-04-23 20:03 52.19779 -1.25954 17324 ft 381 kts 153°
2026-04-23 20:04 52.17402 -1.24124 16611 ft 374 kts 153°
2026-04-23 20:04 52.15068 -1.22336 15927 ft 369 kts 153°
2026-04-23 20:04 52.12765 -1.20584 15256 ft 361 kts 153°
2026-04-23 20:04 52.10511 -1.18886 14602 ft 354 kts 153°
2026-04-23 20:05 52.08291 -1.17227 13915 ft 348 kts 153°
2026-04-23 20:05 52.06111 -1.15602 13201 ft 342 kts 153°
2026-04-23 20:05 52.03967 -1.14003 12511 ft 336 kts 153°
2026-04-23 20:05 52.01863 -1.12449 11788 ft 330 kts 153°
2026-04-23 20:06 51.99799 -1.10934 11249 ft 320 kts 153°
2026-04-23 20:06 51.97813 -1.09474 10808 ft 308 kts 153°
2026-04-23 20:06 51.95891 -1.08059 10375 ft 298 kts 153°
2026-04-23 20:06 51.94048 -1.06653 9915 ft 288 kts 147°
2026-04-23 20:07 51.92625 -1.04531 9453 ft 276 kts 120°
2026-04-23 20:07 51.91777 -1.01772 8990 ft 272 kts 111°
2026-04-23 20:07 51.91047 -0.98953 8541 ft 271 kts 111°
2026-04-23 20:07 51.90329 -0.96129 8088 ft 270 kts 111°
2026-04-23 20:08 51.89618 -0.93331 7652 ft 268 kts 111°
2026-04-23 20:08 51.88917 -0.90556 7202 ft 263 kts 111°
2026-04-23 20:08 51.88235 -0.87853 6770 ft 256 kts 111°
2026-04-23 20:08 51.87575 -0.85226 6303 ft 249 kts 111°
2026-04-23 20:09 51.86935 -0.82678 5889 ft 240 kts 111°
2026-04-23 20:09 51.86313 -0.80214 5483 ft 232 kts 111°
2026-04-23 20:09 51.85715 -0.77833 5131 ft 225 kts 111°
2026-04-23 20:09 51.85140 -0.75539 4880 ft 214 kts 111°
2026-04-23 20:10 51.84774 -0.74088 4710 ft 207 kts 111°
2026-04-23 20:10 51.84065 -0.71312 4437 ft 193 kts 111°
2026-04-23 20:10 51.83570 -0.69356 4234 ft 183 kts 111°
2026-04-23 20:10 51.83095 -0.67491 4072 ft 177 kts 111°
2026-04-23 20:11 51.82697 -0.65617 3923 ft 176 kts 97°
2026-04-23 20:11 51.82781 -0.63662 3747 ft 176 kts 75°
2026-04-23 20:11 51.83118 -0.61754 3529 ft 177 kts 76°
2026-04-23 20:11 51.83455 -0.59844 3294 ft 176 kts 76°
2026-04-23 20:12 51.83790 -0.57935 3052 ft 176 kts 76°
2026-04-23 20:12 51.84115 -0.56084 2832 ft 167 kts 76°
2026-04-23 20:12 51.84423 -0.54326 2597 ft 157 kts 76°
2026-04-23 20:12 51.84710 -0.52686 2401 ft 146 kts 75°
2026-04-23 20:13 51.84977 -0.51153 2207 ft 138 kts 75°
2026-04-23 20:13 51.85233 -0.49691 2005 ft 133 kts 74°
2026-04-23 20:13 51.85474 -0.48259 1790 ft 132 kts 76°
2026-04-23 20:13 51.85722 -0.46846 1604 ft 130 kts 75°
2026-04-23 20:14 51.85973 -0.45445 1435 ft 129 kts 75°
2026-04-23 20:14 51.86214 -0.44033 1224 ft 129 kts 74°
2026-04-23 20:14 51.86467 -0.42635 1047 ft 129 kts 75°
2026-04-23 20:14 51.86706 -0.41228 852 ft 129 kts 74°
2026-04-23 20:15 51.86942 -0.39833 721 ft 127 kts 76°
2026-04-23 20:15 51.87188 -0.38429 556 ft 130 kts 75°
2026-04-23 20:15 51.87398 -0.37212 521 ft 78 kts 73°
2026-04-23 20:15 51.87500 -0.36628 526 ft 43 kts 74°
2026-04-23 20:16 51.87574 -0.36200 518 ft 34 kts 74°
2026-04-23 20:16 51.87620 -0.35950 516 ft 12 kts 63°
2026-04-23 20:16 51.87694 -0.35929 516 ft 12 kts 344°
2026-04-23 20:16 51.87773 -0.35990 516 ft 13 kts 310°
2026-04-23 20:17 51.87777 -0.36118 518 ft 11 kts 256°
2026-04-23 20:17 51.87755 -0.36243 518 ft 12 kts 254°
2026-04-23 20:17 51.87732 -0.36377 518 ft 12 kts 255°
2026-04-23 20:17 51.87710 -0.36506 520 ft 12 kts 254°
2026-04-23 20:18 51.87688 -0.36631 521 ft 12 kts 254°
2026-04-23 20:18 51.87663 -0.36775 524 ft 13 kts 254°
2026-04-23 20:18 51.87648 -0.36910 525 ft 12 kts 282°
2026-04-23 20:18 51.87729 -0.36978 520 ft 16 kts 342°
2026-04-23 20:19 51.87856 -0.37045 511 ft 21 kts 341°
2026-04-23 20:19 51.87992 -0.37118 509 ft 20 kts 341°
2026-04-23 20:19 51.88114 -0.37184 511 ft 16 kts 342°
2026-04-23 20:19 51.88196 -0.37227 517 ft 10 kts 342°
2026-04-23 20:20 51.88236 -0.37296 517 ft 9 kts 270°
2026-04-23 20:20 51.88223 -0.37361 516 ft 9 kts 251°
2026-04-23 20:20 51.88206 -0.37445 516 ft 7 kts 252°
2026-04-23 20:20 51.88203 -0.37506 516 ft 4 kts 268°
2026-04-23 20:21 51.88195 -0.37534 517 ft 2 kts 231°
2026-04-23 20:21 51.88182 -0.37546 516 ft 3 kts 200°
2026-04-23 20:21 51.88162 -0.37557 516 ft 2 kts 201°
2026-04-23 20:21 51.88157 -0.37560 517 ft 0 kts 201°
2026-04-23 20:22 51.88154 -0.37563 517 ft 1 kts 202°
2026-04-23 20:22 51.88152 -0.37564 517 ft 0 kts 202°